Weather History for Baltimore, MD

Change the Weather History Date:

Friday, January 17, 2014

  Actual Average Record
Temperature  
Mean Temperature 34 °F 33 °F  
Max Temperature 44 °F 41 °F 68 °F (1913)
Min Temperature 25 °F 24 °F -7 °F (1982)
Degree Days  
Heating Degree Days 31 32  
Month to date heating degree days 577 544  
Since 1 July heating degree days 2285 2325  
Cooling Degree Days 0 0  
Month to date cooling degree days 0 0  
Year to date cooling degree days 0 0  
Moisture  
Dew Point 26 °F    
Average Humidity 69    
Maximum Humidity 88    
Minimum Humidity 49    
Precipitation  
Precipitation 0.00 in 0.10 in 1.25 in (1978)
Month to date precipitation 2.26 1.67  
Year to date precipitation 2.26 1.67  
Snow  
Snow 0.00 in 0.30 in 2.50 in (1985)
Month to date snowfall 4.2 3.2  
Since 1 July snowfall 7.1 6.6  
Snow Depth 0.00 in    
Sea Level Pressure  
Sea Level Pressure 29.92 in    
Wind  
Wind Speed 3 mph (East)    
Max Wind Speed 13 mph    
Max Gust Speed 17 mph    
Visibility 10 miles    
Events      
T = Trace of Precipitation, MM = Missing Value Source: NWS Daily Summary

Daily Weather History Graph

Daily Weather History Graph

Search for Another Location

Airport:

Trip Planner

Search our weather history database for the weather conditions in past years. The results will help you decide how hot, cold, wet, or windy it might be!

Date:

Astronomy

Jan. 17, 2014 Rise Set
Actual Time 7:23 AM EST 5:10 PM EST
Civil Twilight 6:54 AM EST 5:39 PM EST
Nautical Twilight 6:21 AM EST 6:12 PM EST
Astronomical Twilight 5:49 AM EST 6:44 PM EST
Moon 6:53 PM EST (1/17) 7:51 AM EST (1/17)
Length of Visible Light 10h 45m
Length of Day
9h 46m
Full, 98% of the Moon is Illuminated
Jan 17
Full
Jan 24
Last Quarter
Jan 30
New
Feb 6
First Quarter
Feb 14
Full

Hourly Weather History & Observations

Time (EST) Temp. Windchill Dew Point Humidity Pressure Visibility Wind Dir Wind Speed Gust Speed Precip Events Conditions
12:54 AM 25.0 °F - 21.9 °F 88% 29.96 in 10.0 mi Calm Calm - N/A   Mostly Cloudy
1:54 AM 30.0 °F 26.5 °F 21.9 °F 72% 29.95 in 10.0 mi SSW 3.5 mph - N/A   Mostly Cloudy
2:54 AM 30.0 °F - 24.1 °F 79% 29.94 in 10.0 mi Calm Calm - N/A   Partly Cloudy
3:54 AM 28.9 °F - 24.1 °F 82% 29.93 in 10.0 mi Calm Calm - N/A   Mostly Cloudy
4:54 AM 28.9 °F - 25.0 °F 85% 29.91 in 10.0 mi Calm Calm - N/A   Partly Cloudy
5:54 AM 26.1 °F - 21.9 °F 84% 29.93 in 9.0 mi Calm Calm - N/A   Partly Cloudy
6:54 AM 25.0 °F - 21.9 °F 88% 29.94 in 10.0 mi Calm Calm - N/A   Scattered Clouds
8:54 AM 30.9 °F - 26.1 °F 82% 29.96 in 10.0 mi Calm Calm - N/A   Partly Cloudy
9:54 AM 34.0 °F - 26.1 °F 73% 29.97 in 10.0 mi Calm Calm - N/A   Scattered Clouds
10:54 AM 37.0 °F - 26.1 °F 65% 29.97 in 10.0 mi Calm Calm - N/A   Scattered Clouds
11:54 AM 39.9 °F 37.8 °F 25.0 °F 55% 29.95 in 10.0 mi SW 3.5 mph - N/A   Mostly Cloudy
12:54 PM 43.0 °F - 25.0 °F 49% 29.91 in 10.0 mi Calm Calm - N/A   Scattered Clouds
1:54 PM 43.0 °F 37.7 °F 28.0 °F 56% 29.90 in 10.0 mi ENE 9.2 mph - N/A   Mostly Cloudy
2:54 PM 42.1 °F 36.1 °F 28.9 °F 60% 29.89 in 10.0 mi ENE 10.4 mph - N/A   Mostly Cloudy
3:54 PM 41.0 °F 34.7 °F 28.9 °F 62% 29.88 in 10.0 mi ENE 10.4 mph - N/A   Mostly Cloudy
4:54 PM 39.0 °F 36.8 °F 28.9 °F 67% 29.90 in 10.0 mi ENE 3.5 mph - N/A   Mostly Cloudy
5:54 PM 39.0 °F 35.7 °F 28.0 °F 65% 29.90 in 10.0 mi East 4.6 mph - N/A   Mostly Cloudy
6:54 PM 37.0 °F 33.3 °F 28.0 °F 70% 29.91 in 10.0 mi East 4.6 mph - N/A   Overcast
7:54 PM 36.0 °F 31.1 °F 28.0 °F 73% 29.90 in 10.0 mi East 5.8 mph - N/A   Mostly Cloudy
8:54 PM 35.1 °F 31.0 °F 27.0 °F 72% 29.88 in 10.0 mi East 4.6 mph - N/A   Mostly Cloudy
9:54 PM 36.0 °F 32.1 °F 28.0 °F 73% 29.86 in 10.0 mi NE 4.6 mph - N/A   Overcast
10:54 PM 36.0 °F 32.1 °F 28.9 °F 76% 29.84 in 10.0 mi ENE 4.6 mph - N/A   Mostly Cloudy
11:54 PM 34.0 °F - 28.0 °F 79% 29.81 in 10.0 mi Calm Calm - N/A   Mostly Cloudy